Regional Weather Roundup
Issued by NWS Binghamton, NY

Home | Current Version | Previous Version | Text Only | Print | Product List | Glossary On
Versions: 1 2 3 4 5 6 7 8 9 10 11 12 13 14 15 16 17 18 19 20 21 22 23 24 25 26 27 28 29 30 31 32 33 34 35 36 37 38 39 40 41 42 43 44 45 46 47 48 49 50
000
ASUS41 KBGM 281410
RWRBGM
RWRBGM
BINGHAMTON REGIONAL WEATHER ROUNDUP
NATIONAL WEATHER SERVICE BINGHAMTON NY
900 AM EST WED JAN 28 2015

Note: "fair" indicates few or no clouds below 12,000 feet with no
significant weather and/or obstructions to visibility.

* = Station(s) that does not report precipitation, such as rain,
snow, etc, also no thunder or fog.

!NYZ009-015>018-022>025-036-037-044>046-055>057-062-281500
...CENTRAL NEW YORK...

CITY           SKY/WX    TMP DP  RH WIND       PRES   REMARKS
BINGHAMTON     MOSUNNY   10   3  73 NW14G25   30.05R WCI  -6
CORTLAND       FAIR      12   9  85 NW5       30.15R WCI   4
DANSVILLE      MOSUNNY   -1  -4  87 CALM      30.25R
ELMIRA         SUNNY      2  -3  80 SW7       30.19R WCI -11
ITHACA         MOSUNNY   11   5  76 N9        30.16R WCI  -2
HAMILTON       SUNNY      9   1  72 N6        30.12  WCI  -1
MONTICELLO     MOSUNNY   10   1  67 NW15G22   30.00R WCI  -6
NORWICH        SUNNY      1  -6  71 CALM      30.14R
ONEONTA        MOSUNNY    7  -4  61 NW6       30.02S WCI  -3
PENN YAN       SUNNY     15   6  67 NW8       30.18R WCI   4
ROME           MOSUNNY    1  -5  75 NW5       30.21R WCI  -9
SIDNEY         SUNNY      9   1  72 CALM      30.12R
SYRACUSE       MOSUNNY    8   0  69 VRB3      30.21R
$$

!PAZ038>040-043-044-047-048-072-281500
...NORTHEAST PENNSYLVANIA...

CITY           SKY/WX    TMP DP  RH WIND       PRES   REMARKS
HAZLETON       SUNNY     12   1  62 W12G17    30.08R WCI  -2
SCRANTON       SUNNY     15   2  56 CALM      30.12R
TOWANDA*       SUNNY     16   1  53 SW5       30.19R WCI   9
$$
&&
KEY
WCI = WIND CHILL INDEX
VSB = VISIBILITY
HX  = HEAT INDEX
$$


USA.gov is the U.S. government's official web portal to all federal, state and local government web resources and services.